Year,Month,Day,Hour,Minute,Value (Times are PST for temperature in C)
2015,05,25,00,00,13.70
2015,05,25,00,01,13.60
2015,05,25,00,02,13.60
2015,05,25,00,03,13.60
2015,05,25,00,04,13.60
2015,05,25,00,05,13.60
2015,05,25,00,06,13.50
2015,05,25,00,07,13.50
2015,05,25,00,08,13.50
2015,05,25,00,09,13.40
2015,05,25,00,10,13.40
2015,05,25,00,11,13.40
2015,05,25,00,12,13.40
2015,05,25,00,13,13.30
2015,05,25,00,14,13.30
2015,05,25,00,15,13.30
2015,05,25,00,16,13.30
2015,05,25,00,17,13.30
2015,05,25,00,18,13.30
2015,05,25,00,19,13.30
2015,05,25,00,20,13.20
2015,05,25,00,21,13.20
2015,05,25,00,22,13.20
2015,05,25,00,23,13.20
2015,05,25,00,24,13.20
2015,05,25,00,25,13.10
2015,05,25,00,26,13.10
2015,05,25,00,27,13.10
2015,05,25,00,28,13.10
2015,05,25,00,29,13.00
2015,05,25,00,30,13.00
2015,05,25,00,31,13.00
2015,05,25,00,32,13.00
2015,05,25,00,33,12.90
2015,05,25,00,34,12.90
2015,05,25,00,35,12.90
2015,05,25,00,36,12.90
2015,05,25,00,37,12.90
2015,05,25,00,38,12.90
2015,05,25,00,39,12.90
2015,05,25,00,40,12.90
2015,05,25,00,41,12.90
2015,05,25,00,42,12.90
2015,05,25,00,43,12.90
2015,05,25,00,44,12.90
2015,05,25,00,45,12.90
2015,05,25,00,46,12.80
2015,05,25,00,47,12.80
2015,05,25,00,48,12.80
2015,05,25,00,49,12.80
2015,05,25,00,50,12.80
2015,05,25,00,51,12.70
2015,05,25,00,52,12.70
2015,05,25,00,53,12.70
2015,05,25,00,54,12.70
2015,05,25,00,55,12.70
2015,05,25,00,56,12.70
2015,05,25,00,57,12.70
2015,05,25,00,58,12.70
2015,05,25,00,59,12.70
2015,05,25,01,00,12.60
2015,05,25,01,01,12.60
2015,05,25,01,02,12.60
2015,05,25,01,03,12.60
2015,05,25,01,04,12.60
2015,05,25,01,05,12.60
2015,05,25,01,06,12.60
2015,05,25,01,07,12.50
2015,05,25,01,08,12.50
2015,05,25,01,09,12.50
2015,05,25,01,10,12.40
2015,05,25,01,11,12.40
2015,05,25,01,12,12.40
2015,05,25,01,13,12.40
2015,05,25,01,14,12.30
2015,05,25,01,15,12.30
2015,05,25,01,16,12.30
2015,05,25,01,17,12.30
2015,05,25,01,18,12.30
2015,05,25,01,19,12.30
2015,05,25,01,20,12.20
2015,05,25,01,21,12.20
2015,05,25,01,22,12.20
2015,05,25,01,23,12.20
2015,05,25,01,24,12.20
2015,05,25,01,25,12.20
2015,05,25,01,26,12.20
2015,05,25,01,27,12.10
2015,05,25,01,28,12.10
2015,05,25,01,29,12.10
2015,05,25,01,30,12.10
2015,05,25,01,31,12.10
2015,05,25,01,32,12.10
2015,05,25,01,33,12.10
2015,05,25,01,34,12.00
2015,05,25,01,35,12.00
2015,05,25,01,36,12.00
2015,05,25,01,37,12.00
2015,05,25,01,38,12.00
2015,05,25,01,39,12.00
2015,05,25,01,40,11.90
2015,05,25,01,41,11.90
2015,05,25,01,42,11.90
2015,05,25,01,43,11.90
2015,05,25,01,44,11.80
2015,05,25,01,45,11.80
2015,05,25,01,46,11.80
2015,05,25,01,47,11.80
2015,05,25,01,48,11.80
2015,05,25,01,49,11.80
2015,05,25,01,50,11.80
2015,05,25,01,51,11.70
2015,05,25,01,52,11.70
2015,05,25,01,53,11.70
2015,05,25,01,54,11.70
2015,05,25,01,55,11.70
2015,05,25,01,56,11.70
2015,05,25,01,57,11.70
2015,05,25,01,58,11.70
2015,05,25,01,59,11.70
2015,05,25,02,00,11.60
2015,05,25,02,01,11.60
2015,05,25,02,02,11.60
2015,05,25,02,03,11.60
2015,05,25,02,04,11.60
2015,05,25,02,05,11.60
2015,05,25,02,06,11.60
2015,05,25,02,07,11.60
2015,05,25,02,08,11.50
2015,05,25,02,09,11.50
2015,05,25,02,10,11.50
2015,05,25,02,11,11.60
2015,05,25,02,12,11.60
2015,05,25,02,13,11.60
2015,05,25,02,14,11.60
2015,05,25,02,15,11.60
2015,05,25,02,16,11.60
2015,05,25,02,17,11.60
2015,05,25,02,18,11.60
2015,05,25,02,19,11.50
2015,05,25,02,20,11.50
2015,05,25,02,21,11.50
2015,05,25,02,22,11.40
2015,05,25,02,23,11.40
2015,05,25,02,24,11.40
2015,05,25,02,25,11.40
2015,05,25,02,26,11.30
2015,05,25,02,27,11.30
2015,05,25,02,28,11.30
2015,05,25,02,29,11.30
2015,05,25,02,30,11.20
2015,05,25,02,31,11.20
2015,05,25,02,32,11.20
2015,05,25,02,33,11.20
2015,05,25,02,34,11.20
2015,05,25,02,35,11.20
2015,05,25,02,36,11.20
2015,05,25,02,37,11.10
2015,05,25,02,38,11.10
2015,05,25,02,39,11.10
2015,05,25,02,40,11.10
2015,05,25,02,41,11.10
2015,05,25,02,42,11.10
2015,05,25,02,43,11.00
2015,05,25,02,44,11.00
2015,05,25,02,45,11.00
2015,05,25,02,46,11.00
2015,05,25,02,47,10.90
2015,05,25,02,48,10.90
2015,05,25,02,49,10.90
2015,05,25,02,50,10.90
2015,05,25,02,51,10.90
2015,05,25,02,52,10.90
2015,05,25,02,53,10.90
2015,05,25,02,54,10.80
2015,05,25,02,55,10.80
2015,05,25,02,56,10.80
2015,05,25,02,57,10.80
2015,05,25,02,58,10.80
2015,05,25,02,59,10.80
2015,05,25,03,00,10.70
2015,05,25,03,01,10.70
2015,05,25,03,02,10.70
2015,05,25,03,03,10.70
2015,05,25,03,04,10.60
2015,05,25,03,05,10.60
2015,05,25,03,06,10.60
2015,05,25,03,07,10.60
2015,05,25,03,08,10.60
2015,05,25,03,09,10.60
2015,05,25,03,10,10.50
2015,05,25,03,11,10.50
2015,05,25,03,12,10.50
2015,05,25,03,13,10.50
2015,05,25,03,14,10.40
2015,05,25,03,15,10.40
2015,05,25,03,16,10.40
2015,05,25,03,17,10.40
2015,05,25,03,18,10.30
2015,05,25,03,19,10.30
2015,05,25,03,20,10.30
2015,05,25,03,21,10.30
2015,05,25,03,22,10.30
2015,05,25,03,23,10.30
2015,05,25,03,24,10.30
2015,05,25,03,25,10.30
2015,05,25,03,26,10.20
2015,05,25,03,27,10.20
2015,05,25,03,28,10.20
2015,05,25,03,29,10.20
2015,05,25,03,30,10.20
2015,05,25,03,31,10.20
2015,05,25,03,32,10.20
2015,05,25,03,33,10.20
2015,05,25,03,34,10.20
2015,05,25,03,35,10.20
2015,05,25,03,36,10.10
2015,05,25,03,37,10.10
2015,05,25,03,38,10.10
2015,05,25,03,39,10.10
2015,05,25,03,40,10.10
2015,05,25,03,41,10.10
2015,05,25,03,42,10.10
2015,05,25,03,43,10.10
2015,05,25,03,44,10.00
2015,05,25,03,45,10.00
2015,05,25,03,46,10.00
2015,05,25,03,47,9.90
2015,05,25,03,48,9.90
2015,05,25,03,49,9.90
2015,05,25,03,50,9.90
2015,05,25,03,51,9.90
2015,05,25,03,52,9.90
2015,05,25,03,53,9.90
2015,05,25,03,54,9.90
2015,05,25,03,55,9.80
2015,05,25,03,56,9.80
2015,05,25,03,57,9.80
2015,05,25,03,58,9.80
2015,05,25,03,59,9.80
2015,05,25,04,00,9.80
2015,05,25,04,01,9.80
2015,05,25,04,02,9.80
2015,05,25,04,03,9.70
2015,05,25,04,04,9.70
2015,05,25,04,05,9.70
2015,05,25,04,06,9.70
2015,05,25,04,07,9.70
2015,05,25,04,08,9.70
2015,05,25,04,09,9.70
2015,05,25,04,10,9.70
2015,05,25,04,11,9.60
2015,05,25,04,12,9.60
2015,05,25,04,13,9.60
2015,05,25,04,14,9.60
2015,05,25,04,15,9.60
2015,05,25,04,16,9.60
2015,05,25,04,17,9.60
2015,05,25,04,18,9.60
2015,05,25,04,19,9.60
2015,05,25,04,20,9.60
2015,05,25,04,21,9.50
2015,05,25,04,22,9.50
2015,05,25,04,23,9.50
2015,05,25,04,24,9.50
2015,05,25,04,25,9.50
2015,05,25,04,26,9.50
2015,05,25,04,27,9.50
2015,05,25,04,28,9.40
2015,05,25,04,29,9.40
2015,05,25,04,30,9.40
2015,05,25,04,31,9.40
2015,05,25,04,32,9.40
2015,05,25,04,33,9.40
2015,05,25,04,34,9.40
2015,05,25,04,35,9.40
2015,05,25,04,36,9.40
2015,05,25,04,37,9.40
2015,05,25,04,38,9.30
2015,05,25,04,39,9.30
2015,05,25,04,40,9.30
2015,05,25,04,41,9.30
2015,05,25,04,42,9.30
2015,05,25,04,43,9.30
2015,05,25,04,44,9.30
2015,05,25,04,45,9.30
2015,05,25,04,46,9.30
2015,05,25,04,47,9.30
2015,05,25,04,48,9.30
2015,05,25,04,49,9.30
2015,05,25,04,50,9.30
2015,05,25,04,51,9.30
2015,05,25,04,52,9.30
2015,05,25,04,53,9.30
2015,05,25,04,54,9.20
2015,05,25,04,55,9.20
2015,05,25,04,56,9.20
2015,05,25,04,57,9.20
2015,05,25,04,58,9.20
2015,05,25,04,59,9.20
2015,05,25,05,00,9.20
2015,05,25,05,01,9.20
2015,05,25,05,02,9.20
2015,05,25,05,03,9.10
2015,05,25,05,04,9.10
2015,05,25,05,05,9.10
2015,05,25,05,06,9.10
2015,05,25,05,07,9.10
2015,05,25,05,08,9.10
2015,05,25,05,09,9.10
2015,05,25,05,10,9.10
2015,05,25,05,11,9.10
2015,05,25,05,12,9.10
2015,05,25,05,13,9.10
2015,05,25,05,14,9.10
2015,05,25,05,15,9.00
2015,05,25,05,16,9.00
2015,05,25,05,17,9.00
2015,05,25,05,18,9.00
2015,05,25,05,19,9.00
2015,05,25,05,20,9.00
2015,05,25,05,21,9.00
2015,05,25,05,22,9.00
2015,05,25,05,23,8.90
2015,05,25,05,24,8.90
2015,05,25,05,25,8.90
2015,05,25,05,26,8.90
2015,05,25,05,27,8.90
2015,05,25,05,28,8.90
2015,05,25,05,29,8.90
2015,05,25,05,30,8.90
2015,05,25,05,31,8.90
2015,05,25,05,32,8.90
2015,05,25,05,33,8.90
2015,05,25,05,34,8.90
2015,05,25,05,35,8.90
2015,05,25,05,36,8.90
2015,05,25,05,37,8.90
2015,05,25,05,38,8.90
2015,05,25,05,39,8.90
2015,05,25,05,40,8.90
2015,05,25,05,41,8.90
2015,05,25,05,42,8.90
2015,05,25,05,43,8.90
2015,05,25,05,44,8.90
2015,05,25,05,45,8.90
2015,05,25,05,46,8.90
2015,05,25,05,47,8.90
2015,05,25,05,48,8.90
2015,05,25,05,49,8.90
2015,05,25,05,50,8.90
2015,05,25,05,51,8.80
2015,05,25,05,52,8.80
2015,05,25,05,53,8.80
2015,05,25,05,54,8.80
2015,05,25,05,55,8.80
2015,05,25,05,56,8.80
2015,05,25,05,57,8.80
2015,05,25,05,58,8.80
2015,05,25,05,59,8.80
2015,05,25,06,00,8.80
2015,05,25,06,01,8.80
2015,05,25,06,02,8.80
2015,05,25,06,03,8.80
2015,05,25,06,04,8.80
2015,05,25,06,05,8.80
2015,05,25,06,06,8.80
2015,05,25,06,07,8.80
2015,05,25,06,08,8.80
2015,05,25,06,09,8.80
2015,05,25,06,10,8.80
2015,05,25,06,11,8.80
2015,05,25,06,12,8.80
2015,05,25,06,13,8.80
2015,05,25,06,14,8.80
2015,05,25,06,15,8.80
2015,05,25,06,16,8.80
2015,05,25,06,17,8.80
2015,05,25,06,18,8.80
2015,05,25,06,19,8.80
2015,05,25,06,20,8.80
2015,05,25,06,21,8.80
2015,05,25,06,22,8.80
2015,05,25,06,23,8.80
2015,05,25,06,24,8.80
2015,05,25,06,25,8.80
2015,05,25,06,26,8.80
2015,05,25,06,27,8.80
2015,05,25,06,28,8.80
2015,05,25,06,29,8.80
2015,05,25,06,30,8.80
2015,05,25,06,31,8.80
2015,05,25,06,32,8.80
2015,05,25,06,33,8.80
2015,05,25,06,34,8.80
2015,05,25,06,35,8.80
2015,05,25,06,36,8.80
2015,05,25,06,37,8.80
2015,05,25,06,38,8.80
2015,05,25,06,39,8.90
2015,05,25,06,40,8.90
2015,05,25,06,41,8.90
2015,05,25,06,42,8.90
2015,05,25,06,43,8.90
2015,05,25,06,44,8.90
2015,05,25,06,45,8.90
2015,05,25,06,46,8.90
2015,05,25,06,47,8.90
2015,05,25,06,48,8.90
2015,05,25,06,49,8.90
2015,05,25,06,50,8.90
2015,05,25,06,51,8.90
2015,05,25,06,52,8.90
2015,05,25,06,53,8.90
2015,05,25,06,54,8.90
2015,05,25,06,55,8.90
2015,05,25,06,56,8.90
2015,05,25,06,57,9.00
2015,05,25,06,58,9.00
2015,05,25,06,59,9.00
2015,05,25,07,00,9.00
2015,05,25,07,01,9.00
2015,05,25,07,02,9.10
2015,05,25,07,03,9.10
2015,05,25,07,04,9.20
2015,05,25,07,05,9.20
2015,05,25,07,06,9.30
2015,05,25,07,07,9.40
2015,05,25,07,08,9.50
2015,05,25,07,09,9.60
2015,05,25,07,10,9.70
2015,05,25,07,11,9.80
2015,05,25,07,12,9.80
2015,05,25,07,13,9.90
2015,05,25,07,14,10.00
2015,05,25,07,15,10.10
2015,05,25,07,16,10.20
2015,05,25,07,17,10.30
2015,05,25,07,18,10.30
2015,05,25,07,19,10.40
2015,05,25,07,20,10.50
2015,05,25,07,21,10.60
2015,05,25,07,22,10.60
2015,05,25,07,23,10.70
2015,05,25,07,24,10.80
2015,05,25,07,25,10.80
2015,05,25,07,26,10.90
2015,05,25,07,27,11.00
2015,05,25,07,28,11.10
2015,05,25,07,29,11.20
2015,05,25,07,30,11.20
2015,05,25,07,31,11.30
2015,05,25,07,32,11.40
2015,05,25,07,33,11.50
2015,05,25,07,34,11.60
2015,05,25,07,35,11.70
2015,05,25,07,36,11.70
2015,05,25,07,37,11.80
2015,05,25,07,38,11.90
2015,05,25,07,39,11.90
2015,05,25,07,40,12.00
2015,05,25,07,41,12.00
2015,05,25,07,42,12.00
2015,05,25,07,43,12.00
2015,05,25,07,44,11.90
2015,05,25,07,45,11.90
2015,05,25,07,46,11.90
2015,05,25,07,47,12.00
2015,05,25,07,48,12.00
2015,05,25,07,49,12.00
2015,05,25,07,50,12.00
2015,05,25,07,51,12.00
2015,05,25,07,52,12.00
2015,05,25,07,53,12.00
2015,05,25,07,54,12.00
2015,05,25,07,55,12.10
2015,05,25,07,56,12.10
2015,05,25,07,57,12.20
2015,05,25,07,58,12.20
2015,05,25,07,59,12.20
2015,05,25,08,00,12.30
2015,05,25,08,01,12.30
2015,05,25,08,02,12.30
2015,05,25,08,03,12.40
2015,05,25,08,04,12.50
2015,05,25,08,05,12.50
2015,05,25,08,06,12.60
2015,05,25,08,07,12.70
2015,05,25,08,08,12.80
2015,05,25,08,09,12.90
2015,05,25,08,10,12.90
2015,05,25,08,11,13.00
2015,05,25,08,12,13.00
2015,05,25,08,13,13.10
2015,05,25,08,14,13.20
2015,05,25,08,15,13.30
2015,05,25,08,16,13.30
2015,05,25,08,17,13.40
2015,05,25,08,18,13.50
2015,05,25,08,19,13.50
2015,05,25,08,20,13.60
2015,05,25,08,21,13.60
2015,05,25,08,22,13.70
2015,05,25,08,23,13.70
2015,05,25,08,24,13.80
2015,05,25,08,25,13.80
2015,05,25,08,26,13.90
2015,05,25,08,27,14.00
2015,05,25,08,28,14.10
2015,05,25,08,29,14.20
2015,05,25,08,30,14.40
2015,05,25,08,31,14.40
2015,05,25,08,32,14.50
2015,05,25,08,33,14.50
2015,05,25,08,34,14.50
2015,05,25,08,35,14.40
2015,05,25,08,36,14.40
2015,05,25,08,37,14.40
2015,05,25,08,38,14.40
2015,05,25,08,39,14.40
2015,05,25,08,40,14.40
2015,05,25,08,41,14.40
2015,05,25,08,42,14.40
2015,05,25,08,43,14.40
2015,05,25,08,44,14.40
2015,05,25,08,45,14.40
2015,05,25,08,46,14.40
2015,05,25,08,47,14.40
2015,05,25,08,48,14.40
2015,05,25,08,49,14.40
2015,05,25,08,50,14.40
2015,05,25,08,51,14.40
2015,05,25,08,52,14.50
2015,05,25,08,53,14.50
2015,05,25,08,54,14.50
2015,05,25,08,55,14.50
2015,05,25,08,56,14.60
2015,05,25,08,57,14.60
2015,05,25,08,58,14.60
2015,05,25,08,59,14.60
2015,05,25,09,00,14.60
2015,05,25,09,01,14.60
2015,05,25,09,02,14.70
2015,05,25,09,03,14.70
2015,05,25,09,04,14.70
2015,05,25,09,05,14.80
2015,05,25,09,06,14.80
2015,05,25,09,07,14.80
2015,05,25,09,08,14.80
2015,05,25,09,09,14.80
2015,05,25,09,10,14.80
2015,05,25,09,11,14.80
2015,05,25,09,12,14.80
2015,05,25,09,13,14.80
2015,05,25,09,14,14.90
2015,05,25,09,15,14.90
2015,05,25,09,16,15.00
2015,05,25,09,17,15.00
2015,05,25,09,18,15.10
2015,05,25,09,19,15.20
2015,05,25,09,20,15.20
2015,05,25,09,21,15.30
2015,05,25,09,22,15.40
2015,05,25,09,23,15.50
2015,05,25,09,24,15.60
2015,05,25,09,25,15.80
2015,05,25,09,26,15.90
2015,05,25,09,27,15.90
2015,05,25,09,28,16.00
2015,05,25,09,29,16.10
2015,05,25,09,30,16.20
2015,05,25,09,31,16.30
2015,05,25,09,32,16.40
2015,05,25,09,33,16.60
2015,05,25,09,34,16.70
2015,05,25,09,35,16.70
2015,05,25,09,36,16.70
2015,05,25,09,37,16.70
2015,05,25,09,38,16.70
2015,05,25,09,39,16.70
2015,05,25,09,40,16.70
2015,05,25,09,41,16.70
2015,05,25,09,42,16.60
2015,05,25,09,43,16.60
2015,05,25,09,44,16.60
2015,05,25,09,45,16.60
2015,05,25,09,46,16.60
2015,05,25,09,47,16.60
2015,05,25,09,48,16.60
2015,05,25,09,49,16.70
2015,05,25,09,50,16.70
2015,05,25,09,51,16.80
2015,05,25,09,52,16.80
2015,05,25,09,53,16.80
2015,05,25,09,54,16.90
2015,05,25,09,55,17.00
2015,05,25,09,56,17.10
2015,05,25,09,57,17.20
2015,05,25,09,58,17.20
2015,05,25,09,59,17.30
2015,05,25,10,00,17.30
2015,05,25,10,01,17.30
2015,05,25,10,02,17.30
2015,05,25,10,03,17.20
2015,05,25,10,04,17.20
2015,05,25,10,05,17.10
2015,05,25,10,06,17.00
2015,05,25,10,07,17.00
2015,05,25,10,08,17.10
2015,05,25,10,09,17.10
2015,05,25,10,10,17.10
2015,05,25,10,11,17.10
2015,05,25,10,12,17.10
2015,05,25,10,13,17.10
2015,05,25,10,14,17.10
2015,05,25,10,15,17.20
2015,05,25,10,16,17.20
2015,05,25,10,17,17.30
2015,05,25,10,18,17.30
2015,05,25,10,19,17.30
2015,05,25,10,20,17.30
2015,05,25,10,21,17.30
2015,05,25,10,22,17.30
2015,05,25,10,23,17.40
2015,05,25,10,24,17.50
2015,05,25,10,25,17.60
2015,05,25,10,26,17.80
2015,05,25,10,27,17.80
2015,05,25,10,28,17.90
2015,05,25,10,29,17.90
2015,05,25,10,30,17.90
2015,05,25,10,31,17.90
2015,05,25,10,32,17.90
2015,05,25,10,33,17.90
2015,05,25,10,34,17.80
2015,05,25,10,35,17.90
2015,05,25,10,36,17.90
2015,05,25,10,37,17.80
2015,05,25,10,38,17.80
2015,05,25,10,39,17.80
2015,05,25,10,40,17.90
2015,05,25,10,41,17.90
2015,05,25,10,42,18.00
2015,05,25,10,43,18.00
2015,05,25,10,44,18.10
2015,05,25,10,45,18.10
2015,05,25,10,46,18.10
2015,05,25,10,47,18.10
2015,05,25,10,48,18.20
2015,05,25,10,49,18.30
2015,05,25,10,50,18.40
2015,05,25,10,51,18.50
2015,05,25,10,52,18.50
2015,05,25,10,53,18.60
2015,05,25,10,54,18.60
2015,05,25,10,55,18.60
2015,05,25,10,56,18.70
2015,05,25,10,57,18.80
2015,05,25,10,58,18.80
2015,05,25,10,59,18.80
2015,05,25,11,00,18.90
2015,05,25,11,01,19.00
2015,05,25,11,02,19.10
2015,05,25,11,03,19.00
2015,05,25,11,04,18.90
2015,05,25,11,05,18.70
2015,05,25,11,06,18.70
2015,05,25,11,07,18.70
2015,05,25,11,08,18.80
2015,05,25,11,09,18.80
2015,05,25,11,10,18.90
2015,05,25,11,11,19.00
2015,05,25,11,12,19.00
2015,05,25,11,13,19.10
2015,05,25,11,14,19.10
2015,05,25,11,15,19.10
2015,05,25,11,16,19.20
2015,05,25,11,17,19.30
2015,05,25,11,18,19.30
2015,05,25,11,19,19.40
2015,05,25,11,20,19.40
2015,05,25,11,21,19.40
2015,05,25,11,22,19.40
2015,05,25,11,23,19.50
2015,05,25,11,24,19.50
2015,05,25,11,25,19.50
2015,05,25,11,26,19.60
2015,05,25,11,27,19.60
2015,05,25,11,28,19.60
2015,05,25,11,29,19.50
2015,05,25,11,30,19.40
2015,05,25,11,31,19.40
2015,05,25,11,32,19.40
2015,05,25,11,33,19.40
2015,05,25,11,34,19.40
2015,05,25,11,35,19.40
2015,05,25,11,36,19.40
2015,05,25,11,37,19.40
2015,05,25,11,38,19.50
2015,05,25,11,39,19.50
2015,05,25,11,40,19.60
2015,05,25,11,41,19.60
2015,05,25,11,42,19.60
2015,05,25,11,43,19.70
2015,05,25,11,44,19.70
2015,05,25,11,45,19.80
2015,05,25,11,46,19.80
2015,05,25,11,47,19.80
2015,05,25,11,48,19.80
2015,05,25,11,49,19.80
2015,05,25,11,50,19.80
2015,05,25,11,51,19.90
2015,05,25,11,52,20.00
2015,05,25,11,53,20.10
2015,05,25,11,54,20.20
2015,05,25,11,55,20.20
2015,05,25,11,56,20.20
2015,05,25,11,57,20.20
2015,05,25,11,58,20.30
2015,05,25,11,59,20.40
2015,05,25,12,00,20.40
2015,05,25,12,01,20.50
2015,05,25,12,02,20.50
2015,05,25,12,03,20.60
2015,05,25,12,04,20.60
2015,05,25,12,05,20.60
2015,05,25,12,06,20.60
2015,05,25,12,07,20.60
2015,05,25,12,08,20.70
2015,05,25,12,09,20.70
2015,05,25,12,10,20.70
2015,05,25,12,11,20.70
2015,05,25,12,12,20.80
2015,05,25,12,13,20.80
2015,05,25,12,14,20.90
2015,05,25,12,15,20.90
2015,05,25,12,16,21.00
2015,05,25,12,17,21.00
2015,05,25,12,18,21.10
2015,05,25,12,19,21.20
2015,05,25,12,20,21.30
2015,05,25,12,21,21.50
2015,05,25,12,22,21.60
2015,05,25,12,23,21.50
2015,05,25,12,24,21.50
2015,05,25,12,25,21.40
2015,05,25,12,26,21.40
2015,05,25,12,27,21.40
2015,05,25,12,28,21.50
2015,05,25,12,29,21.50
2015,05,25,12,30,21.50
2015,05,25,12,31,21.50
2015,05,25,12,32,21.50
2015,05,25,12,33,21.60
2015,05,25,12,34,21.70
2015,05,25,12,35,21.60
2015,05,25,12,36,21.60
2015,05,25,12,37,21.60
2015,05,25,12,38,21.60
2015,05,25,12,39,21.70
2015,05,25,12,40,21.80
2015,05,25,12,41,21.80
2015,05,25,12,42,21.70
2015,05,25,12,43,21.60
2015,05,25,12,44,21.60
2015,05,25,12,45,21.60
2015,05,25,12,46,21.60
2015,05,25,12,47,21.60
2015,05,25,12,48,21.60
2015,05,25,12,49,21.60
2015,05,25,12,50,21.60
2015,05,25,12,51,21.60
2015,05,25,12,52,21.70
2015,05,25,12,53,21.70
2015,05,25,12,54,21.70
2015,05,25,12,55,21.70
2015,05,25,12,56,21.70
2015,05,25,12,57,21.80
2015,05,25,12,58,21.80
2015,05,25,12,59,21.90
2015,05,25,13,00,22.00
2015,05,25,13,01,22.10
2015,05,25,13,02,22.20
2015,05,25,13,03,22.20
2015,05,25,13,04,22.20
2015,05,25,13,05,22.00
2015,05,25,13,06,22.00
2015,05,25,13,07,22.00
2015,05,25,13,08,21.90
2015,05,25,13,09,21.90
2015,05,25,13,10,21.90
2015,05,25,13,11,22.00
2015,05,25,13,12,21.90
2015,05,25,13,13,22.00
2015,05,25,13,14,22.00
2015,05,25,13,15,22.10
2015,05,25,13,16,22.20
2015,05,25,13,17,22.30
2015,05,25,13,18,22.30
2015,05,25,13,19,22.30
2015,05,25,13,20,22.40
2015,05,25,13,21,22.30
2015,05,25,13,22,22.30
2015,05,25,13,23,22.30
2015,05,25,13,24,22.30
2015,05,25,13,25,22.30
2015,05,25,13,26,22.30
2015,05,25,13,27,22.40
2015,05,25,13,28,22.40
2015,05,25,13,29,22.30
2015,05,25,13,30,22.30
2015,05,25,13,31,22.30
2015,05,25,13,32,22.40
2015,05,25,13,33,22.40
2015,05,25,13,34,22.50
2015,05,25,13,35,22.50
2015,05,25,13,36,22.60
2015,05,25,13,37,22.60
2015,05,25,13,38,22.60
2015,05,25,13,39,22.70
2015,05,25,13,40,22.80
2015,05,25,13,41,22.90
2015,05,25,13,42,23.00
2015,05,25,13,43,23.10
2015,05,25,13,44,23.10
2015,05,25,13,45,23.10
2015,05,25,13,46,23.10
2015,05,25,13,47,23.10
2015,05,25,13,48,23.10
2015,05,25,13,49,23.00
2015,05,25,13,50,23.00
2015,05,25,13,51,23.10
2015,05,25,13,52,23.10
2015,05,25,13,53,23.20
2015,05,25,13,54,23.20
2015,05,25,13,55,23.30
2015,05,25,13,56,23.40
2015,05,25,13,57,23.60
2015,05,25,13,58,23.80
2015,05,25,13,59,23.90
2015,05,25,14,00,24.00
2015,05,25,14,01,24.00
2015,05,25,14,02,23.80
2015,05,25,14,03,23.60
2015,05,25,14,04,23.50
2015,05,25,14,05,23.50
2015,05,25,14,06,23.50
2015,05,25,14,07,23.50
2015,05,25,14,08,23.40
2015,05,25,14,09,23.40
2015,05,25,14,10,23.30
2015,05,25,14,11,23.30
2015,05,25,14,12,23.30
2015,05,25,14,13,23.20
2015,05,25,14,14,23.20
2015,05,25,14,15,23.10
2015,05,25,14,16,23.10
2015,05,25,14,17,23.00
2015,05,25,14,18,22.90
2015,05,25,14,19,22.90
2015,05,25,14,20,22.90
2015,05,25,14,21,22.90
2015,05,25,14,22,22.90
2015,05,25,14,23,22.80
2015,05,25,14,24,22.70
2015,05,25,14,25,22.70
2015,05,25,14,26,22.80
2015,05,25,14,27,22.80
2015,05,25,14,28,22.80
2015,05,25,14,29,22.80
2015,05,25,14,30,22.80
2015,05,25,14,31,22.80
2015,05,25,14,32,22.80
2015,05,25,14,33,22.80
2015,05,25,14,34,22.80
2015,05,25,14,35,22.70
2015,05,25,14,36,22.60
2015,05,25,14,37,22.50
2015,05,25,14,38,22.50
2015,05,25,14,39,22.40
2015,05,25,14,40,22.40
2015,05,25,14,41,22.40
2015,05,25,14,42,22.40
2015,05,25,14,43,22.40
2015,05,25,14,44,22.40
2015,05,25,14,45,22.40
2015,05,25,14,46,22.40
2015,05,25,14,47,22.40
2015,05,25,14,48,22.40
2015,05,25,14,49,22.40
2015,05,25,14,50,22.40
2015,05,25,14,51,22.40
2015,05,25,14,52,22.40
2015,05,25,14,53,22.50
2015,05,25,14,54,22.50
2015,05,25,14,55,22.50
2015,05,25,14,56,22.60
2015,05,25,14,57,22.60
2015,05,25,14,58,22.60
2015,05,25,14,59,22.60
2015,05,25,15,00,22.60
2015,05,25,15,01,22.50
2015,05,25,15,02,22.40
2015,05,25,15,03,22.40
2015,05,25,15,04,22.30
2015,05,25,15,05,22.30
2015,05,25,15,06,22.20
2015,05,25,15,07,22.20
2015,05,25,15,08,22.20
2015,05,25,15,09,22.20
2015,05,25,15,10,22.20
2015,05,25,15,11,22.20
2015,05,25,15,12,22.20
2015,05,25,15,13,22.20
2015,05,25,15,14,22.20
2015,05,25,15,15,22.10
2015,05,25,15,16,22.20
2015,05,25,15,17,22.20
2015,05,25,15,18,22.20
2015,05,25,15,19,22.20
2015,05,25,15,20,22.20
2015,05,25,15,21,22.30
2015,05,25,15,22,22.30
2015,05,25,15,23,22.40
2015,05,25,15,24,22.40
2015,05,25,15,25,22.50
2015,05,25,15,26,22.50
2015,05,25,15,27,22.60
2015,05,25,15,28,22.60
2015,05,25,15,29,22.60
2015,05,25,15,30,22.70
2015,05,25,15,31,22.70
2015,05,25,15,32,22.70
2015,05,25,15,33,22.80
2015,05,25,15,34,22.80
2015,05,25,15,35,22.80
2015,05,25,15,36,22.80
2015,05,25,15,37,22.90
2015,05,25,15,38,22.90
2015,05,25,15,39,23.00
2015,05,25,15,40,23.10
2015,05,25,15,41,23.10
2015,05,25,15,42,23.10
2015,05,25,15,43,23.00
2015,05,25,15,44,23.10
2015,05,25,15,45,23.10
2015,05,25,15,46,23.20
2015,05,25,15,47,23.20
2015,05,25,15,48,23.10
2015,05,25,15,49,23.10
2015,05,25,15,50,23.00
2015,05,25,15,51,23.00
2015,05,25,15,52,22.90
2015,05,25,15,53,22.90
2015,05,25,15,54,22.80
2015,05,25,15,55,22.80
2015,05,25,15,56,22.80
2015,05,25,15,57,22.80
2015,05,25,15,58,22.80
2015,05,25,15,59,22.80
2015,05,25,16,00,22.80
2015,05,25,16,01,22.70
2015,05,25,16,02,22.70
2015,05,25,16,03,22.70
2015,05,25,16,04,22.60
2015,05,25,16,05,22.50
2015,05,25,16,06,22.50
2015,05,25,16,07,22.40
2015,05,25,16,08,22.40
2015,05,25,16,09,22.30
2015,05,25,16,10,22.30
2015,05,25,16,11,22.30
2015,05,25,16,12,22.30
2015,05,25,16,13,22.30
2015,05,25,16,14,22.30
2015,05,25,16,15,22.30
2015,05,25,16,16,22.30
2015,05,25,16,17,22.30
2015,05,25,16,18,22.40
2015,05,25,16,19,22.40
2015,05,25,16,20,22.50
2015,05,25,16,21,22.60
2015,05,25,16,22,22.70
2015,05,25,16,23,22.80
2015,05,25,16,24,22.70
2015,05,25,16,25,22.60
2015,05,25,16,26,22.50
2015,05,25,16,27,22.50
2015,05,25,16,28,22.50
2015,05,25,16,29,22.50
2015,05,25,16,30,22.60
2015,05,25,16,31,22.60
2015,05,25,16,32,22.60
2015,05,25,16,33,22.60
2015,05,25,16,34,22.70
2015,05,25,16,35,22.70
2015,05,25,16,36,22.70
2015,05,25,16,37,22.60
2015,05,25,16,38,22.60
2015,05,25,16,39,22.60
2015,05,25,16,40,22.60
2015,05,25,16,41,22.50
2015,05,25,16,42,22.50
2015,05,25,16,43,22.40
2015,05,25,16,44,22.40
2015,05,25,16,45,22.40
2015,05,25,16,46,22.40
2015,05,25,16,47,22.40
2015,05,25,16,48,22.40
2015,05,25,16,49,22.50
2015,05,25,16,50,22.50
2015,05,25,16,51,22.60
2015,05,25,16,52,22.60
2015,05,25,16,53,22.50
2015,05,25,16,54,22.50
2015,05,25,16,55,22.40
2015,05,25,16,56,22.30
2015,05,25,16,57,22.30
2015,05,25,16,58,22.30
2015,05,25,16,59,22.30
2015,05,25,17,00,22.30
2015,05,25,17,01,22.30
2015,05,25,17,02,22.20
2015,05,25,17,03,22.20
2015,05,25,17,04,22.20
2015,05,25,17,05,22.10
2015,05,25,17,06,22.10
2015,05,25,17,07,22.00
2015,05,25,17,08,21.90
2015,05,25,17,09,21.90
2015,05,25,17,10,21.90
2015,05,25,17,11,21.90
2015,05,25,17,12,21.80
2015,05,25,17,13,21.80
2015,05,25,17,14,21.80
2015,05,25,17,15,21.80
2015,05,25,17,16,21.70
2015,05,25,17,17,21.70
2015,05,25,17,18,21.70
2015,05,25,17,19,21.70
2015,05,25,17,20,21.60
2015,05,25,17,21,21.50
2015,05,25,17,22,21.40
2015,05,25,17,23,21.30
2015,05,25,17,24,21.30
2015,05,25,17,25,21.30
2015,05,25,17,26,21.20
2015,05,25,17,27,21.20
2015,05,25,17,28,21.20